This demonstration page uses our WeatherBlox Daily Observations layout. Learn more.

Left ArrowRight Arrow

34.16533, -84.80231

Hourly Observations for September 1, 2017

Temp ( °F °C ) Dew Point ( °F °C ) Humidity (%) Winds ( mph kmh ) Pressure ( in mb ) Visibility ( mi km ) Precip ( " mm )
12:02 am 00:02 Mostly Cloudy 75 23.9 71 21.7 88 88 SSE 7 11 29.88 1012 10 16 0.00 0.00
12:53 am 00:53 Partly Cloudy 74 23.3 71 21.7 91 91 SE 7 11 29.85 1011 10 16 0.00 0.00
1:48 am 01:48 Mostly Cloudy 73 23 72 22 94 94 SSE 12 19 29.88 1012 10 16 0.00 0.00
1:53 am 01:53 Mostly Cloudy 75 23.9 71 21.7 88 88 SSE 9 15 29.84 1010 10 16 0.00 0.00
2:31 am 02:31 Partly Cloudy 74 23.3 71 21.7 91 91 SSE 12 19 29.83 1010 10 16 0.00 0.00
2:53 am 02:53 Clear 74 23.3 71 21.7 91 91 SSE 15 24 29.82 1010 10 16 0.00 0.00
3:53 am 03:53 Mostly Cloudy 74 23.3 71 21.7 91 91 SSE 13 20 29.80 1009 10 16 0.00 0.00
4:26 am 04:26 Mostly Cloudy 74 23.3 71 21.7 91 91 SSE 9 15 29.80 1009 10 16 0.00 0.00
4:37 am 04:37 Mostly Cloudy 75 23.9 71 21.7 88 88 SSE 10 17 29.80 1009 10 16 0.00 0.00
4:46 am 04:46 Cloudy 75 23.9 71 21.7 88 88 SSE 15 24 29.80 1009 10 16 0.00 0.00
4:53 am 04:53 Cloudy 75 23.9 71 21.7 88 88 SSE 12 19 29.79 1009 10 16 0.00 0.00
5:31 am 05:31 Cloudy with Nearby Thunderstorms 75 23.9 71 21.7 88 88 SSE 8 13 29.80 1009 10 16 0.00 0.00
5:53 am 05:53 Cloudy 75 23.9 71 21.7 88 88 SSE 12 19 29.78 1008 10 16 0.00 0.00
6:00 am 06:00 Cloudy with Nearby Thunderstorms 75 23.9 70 21.1 84 84 SSE 12 19 29.80 1009 10 16 0.00 0.00
6:15 am 06:15 Cloudy with Light Rain 75 23.9 71 21.7 88 88 SSE 15 24 29.80 1009 10 16 0.01 0.25
6:28 am 06:28 Cloudy with Thunderstorms 74 23.3 71 21.7 91 91 SSE 16 26 29.80 1009 10 16 0.02 0.51
6:39 am 06:39 Cloudy with Light Rain 73 22.8 72 22.2 96 96 S 12 19 29.80 1009 10 16 0.02 0.51
6:53 am 06:53 Cloudy 73 22.8 72 22.2 96 96 S 5 7 29.80 1009 10 16 0.02 0.51
7:10 am 07:10 Cloudy 73 22.8 72 22.2 96 96 S 8 13 29.80 1009 10 16 0.00 0.00
7:17 am 07:17 Cloudy 73 22.8 72 22.2 96 96 S 9 15 29.85 1011 10 16 0.00 0.00
7:26 am 07:26 Cloudy 73 22.8 72 22.2 96 96 S 10 17 29.85 1011 10 16 0.00 0.00
7:48 am 07:48 Cloudy 73 23 72 22 94 94 SSW 8 13 29.83 1010 10 16 0.00 0.00
7:53 am 07:53 Cloudy 73 22.8 71 21.7 94 94 S 6 9 29.82 1010 10 16 0.00 0.00
8:32 am 08:32 Partly Cloudy 74 23.3 69 20.6 85 85 VRB 6 9 29.85 1011 10 16 0.00 0.00
8:53 am 08:53 Partly Cloudy 74 23.3 69 20.6 85 85 undefined N/A 29.84 1010 10 16 0.00 0.00
9:01 am 09:01 Mostly Cloudy 74 23.3 69 20.6 85 85 SW 8 13 29.85 1011 10 16 0.00 0.00
9:35 am 09:35 Partly Cloudy 75 23.9 67 19.4 76 76 S 13 20 29.85 1011 10 16 0.00 0.00
9:53 am 09:53 Mostly Sunny 76 24.4 67 19.4 74 74 SW 8 13 29.85 1011 10 16 0.00 0.00
10:53 am 10:53 Mostly Sunny 77 25 65 18.3 66 66 VRB 7 11 29.87 1011 10 16 0.00 0.00
11:53 am 11:53 Mostly Cloudy 77 25 65 18.3 66 66 SSW 13 20 29.87 1012 10 16 0.00 0.00
12:53 pm 12:53 Mostly Cloudy 79 26.1 66 18.9 65 65 VRB 6 9 29.86 1011 10 16 0.00 0.00
1:53 pm 13:53 Mostly Cloudy 79 26.1 65 18.3 62 62 SSW 8 13 29.85 1011 10 16 0.00 0.00
2:53 pm 14:53 Mostly Cloudy 79 26.1 65 18.3 62 62 SSW 8 13 29.85 1011 10 16 0.00 0.00
3:53 pm 15:53 Mostly Cloudy 79 26.1 65 18.3 62 62 SW 9 15 29.85 1011 10 16 0.00 0.00
4:53 pm 16:53 Cloudy 78 25.6 65 18.3 64 64 SW 8 13 29.85 1011 10 16 0.00 0.00
5:53 pm 17:53 Cloudy 76 24.4 64 17.8 67 67 undefined N/A 29.87 1011 10 16 0.00 0.00
6:53 pm 18:53 Mostly Cloudy 76 24.4 65 18.3 69 69 Calm 29.88 1012 10 16 0.00 0.00
7:53 pm 19:53 Cloudy 68 20 68 20 100 100 Calm 29.93 1014 10 16 0.02 0.51
8:53 pm 20:53 Partly Cloudy 67 19.4 65 18.3 93 93 VRB 3 6 29.95 1014 10 16 0.00 0.00
9:53 pm 21:53 Cloudy 66 18.9 64 17.8 93 93 Calm 29.98 1015 10 16 0.00 0.00
10:53 pm 22:53 Clear 64 17.8 63 17.2 96 96 Calm 29.99 1016 10 16 0.00 0.00
11:50 pm 23:50 Mostly Cloudy 64 18 63 17 94 94 Calm 30.03 1017 10 16 0.00 0.00
11:53 pm 23:53 Mostly Cloudy 64 17.8 63 17.2 96 96 Calm 30.00 1016 10 16 0.00 0.00

Powered by AerisWeather